Regional Weather Roundup
Issued by NWS

Home | Current Version | Previous Version | Graphics & Text | Print | Product List | Glossary On
Versions: 1 2 3 4 5 6 7 8 9 10 11 12 13 14 15 16 17 18 19 20 21 22 23 24 25 26 27 28 29 30 31 32 33 34 35 36 37 38 39 40 41 42 43 44 45 46 47 48 49 50
000
ASUS43 KFSD 252202
RWRSD

WEATHER ROUNDUP FOR SOUTH DAKOTA
NATIONAL WEATHER SERVICE SIOUX FALLS SD
500 PM CDT SAT OCT 25 2014

NOTE: "FAIR" INDICATES FEW OR NO CLOUDS BELOW 12,000 FEET WITH NO
SIGNIFICANT WEATHER AND/OR OBSTRUCTIONS TO VISIBILITY.


SDZ001>005-009-010-012>017-252300-
NORTHWEST AND NORTH CENTRAL SOUTH DAKOTA

CITY           SKY/WX    TMP DP  RH WIND       PRES   REMARKS
BUFFALO          N/A     66  31  27 SE23G29   29.90F
FAITH            N/A     65  30  27 S18       30.02F
MOBRIDGE       SUNNY     67  29  24 S6        30.04F
$$

SDZ012>016-024>037-041>051-057-063-072>074-252300-
SOUTHWEST AND SOUTH CENTRAL SOUTH DAKOTA

CITY           SKY/WX    TMP DP  RH WIND       PRES   REMARKS
RAPID CTY ARPT SUNNY     65  37  35 S17       30.01F
PIERRE         SUNNY     68  29  23 E10       30.04F
CUSTER         SUNNY     67  33  28 S5        30.09S
ELLSWORTH AFB  SUNNY     65  38  36 S17G23    30.00F
PHILIP         SUNNY     69  32  25 SE15      30.01F
PINE RIDGE     SUNNY     72  39  30 SE10      30.01F
SPEARFISH      FAIR      68  41  37 E5        29.99F
WINNER         FAIR      70  29  21 SE9       30.05F
$$

SDZ004>011-016>023-039-040-252300-
NORTHEAST SOUTH DAKOTA

CITY           SKY/WX    TMP DP  RH WIND       PRES   REMARKS
ABERDEEN       SUNNY     67  29  24 VRB3      30.09F
WATERTOWN      SUNNY     62  30  29 N8        30.09F
SISSETON         N/A     63  27  25 N8        30.08S
$$

SDZ017-020-022-023-036>040-048>070-252300-
SOUTHEAST SOUTH DAKOTA

CITY           SKY/WX    TMP DP  RH WIND       PRES   REMARKS
SIOUX FALLS    SUNNY     66  41  40 NE5       30.09S
HURON          SUNNY     67  28  23 E3        30.08F
CHAMBERLAIN    SUNNY     67  28  23 E8        30.06F
MITCHELL       SUNNY     69  32  25 NE5       30.08F
YANKTON        SUNNY     68  36  30 E6        30.07F
$$

ABBREVIATIONS USED IN REMARKS
   TC - TEMPERATURE IN CELSIUS
  WCI - WIND CHILL INDEX
   HX - HEAT INDEX
  VSB - VISIBILITY




USA.gov is the U.S. government's official web portal to all federal, state and local government web resources and services.